Location: Newark
(15.4211°N, 108.6697°E)
Time: 06:12:34
(UTC+00:00)

N. Korean satellite - Visible Passes

Search period start: 07 December 2019 00:00
Search period end: 17 December 2019 00:00
Orbit: 456 x 506 km, 97.2° (Epoch: 06 December)

Date Brightness Start Highest point End Pass type
(mag) Time Alt. Az. Time Alt. Az. Time Alt. Az.
07 Dec 7.4 22:10:05 10° NNE 22:13:29 52° E 22:16:49 10° S visible
08 Dec 9.4 21:45:29 10° NE 21:48:02 19° E 21:50:34 10° SE visible
10 Dec 9.8 10:48:22 10° SW 10:51:03 19° W 10:53:44 10° NW visible
10 Dec 6.4 22:27:03 10° N 22:30:30 74° W 22:33:53 10° SSW visible
11 Dec 8.1 22:01:53 10° NNE 22:05:05 36° E 22:08:16 10° SSE visible
12 Dec 9.8 21:37:43 10° ENE 21:39:38 14° E 21:41:33 10° SE visible
13 Dec 10.5 11:07:33 10° WSW 11:08:08 10° W 11:08:42 10° W visible
14 Dec 9.4 10:39:35 10° SSW 10:42:40 25° W 10:45:46 10° NW visible
14 Dec 6.6 22:18:40 10° NNE 22:22:06 78° E 22:25:30 10° S visible
15 Dec 8.8 21:53:44 10° NE 21:56:41 26° E 21:59:35 10° SSE visible
16 Dec 10.1 21:30:34 10° E 21:31:12 10° E 21:31:51 10° ESE visible
